[[{"header":{"parameterUnit":"m.s-1","parameterCategory":1,"la1":30.2991,"la2":30.254,"lo1":-89.0895,"lo2":-89.0444,"dy":0.0017,"dx":0.0017,"nx":28,"ny":28,"refTime":"2025-08-21T03:00:00:Z","depth":0,"parameterNumber":2,"parameterNumberName":"U-component_of_WINDS"},"data":[0,0,0,0,0,0,0,0,0,0,0,0,0,0,0,0,0,0,0,0,0,0,0,0,0,0,0,0,0,0,0,0,0,0,0,0,0,0,0,0,0,0,0,0,0,0,0,0,0,0,0,0,0,0,0,0,0,0,1.8808,1.8808,0,1.8854,1.8854,1.8855,1.8853,1.8852,1.8851,1.8851,1.8895,1.8897,1.8898,0,0,0,0,0,0,0,0,0,0,0,0,0,1.8716,1.8717,1.8808,1.8808,1.8809,1.8853,1.8854,1.8855,1.8853,1.8852,1.8851,1.8851,1.8894,1.8896,1.8898,0,0,0,0,0,0,0,0,0,0,0,0,0,1.8758,1.8718,1.8808,1.8813,1.8814,1.8853,1.8854,1.8855,1.8853,1.8852,1.8851,1.885,1.8894,1.8896,1.8899,1.8934,0,0,1.8907,1.8908,0,0,0,0,0,0,0,0,1.8755,1.8761,1.8812,1.8813,1.8814,1.8847,1.8838,1.8881,1.8853,1.8838,1.8851,1.885,1.8879,1.8883,1.8894,1.8936,1.8938,1.8907,1.8909,1.891,1.8911,0,0,0,0,0,0,0,1.8753,1.8759,1.8826,1.8813,1.8814,1.8813,1.8818,1.8846,1.8863,1.8839,1.8839,1.8845,1.888,1.8891,1.8895,1.8939,1.8907,1.8909,1.8911,1.8912,1.9011,1.9012,0,0,0,0,0,0,1.8749,1.8757,1.8824,1.8827,1.8782,1.8815,1.8821,1.8837,1.8863,1.8866,1.8846,1.8845,1.8887,1.8892,1.8896,1.8938,1.891,1.8912,1.8914,1.901,1.9011,1.9012,0,0,0,0,0,0,1.8747,1.8755,1.8823,1.8792,1.8801,1.8818,1.8836,1.8838,1.885,1.8868,1.8871,1.8854,1.8887,1.8892,1.8925,1.894,1.8913,1.8916,1.9008,1.901,1.9012,1.9023,0,0,0,0,0,0,1.8744,1.8754,1.8769,1.8792,1.8802,1.8851,1.8837,1.884,1.8855,1.8854,1.8877,1.888,1.8886,1.8921,1.8927,1.8943,1.8918,1.9007,1.9009,1.9011,1.9021,1.9025,1.9028,0,0,0,0,0,1.8741,1.877,1.8769,1.8778,1.8821,1.8852,1.8858,1.8865,1.8856,1.887,1.8881,1.8879,1.8937,1.8924,1.8931,1.8948,1.9006,1.9009,1.9011,1.902,1.9024,1.9028,0,0,0,0,0,0,1.8747,1.8773,1.8773,1.8811,1.8829,1.8852,1.887,1.887,1.8891,1.8889,1.8897,1.8902,1.8933,1.8944,1.8929,1.8983,1.897,1.8974,1.8975,1.8979,1.8982,1.8978,1.892,0,0,0,0,0,1.8752,1.8777,1.8798,1.8829,1.8838,1.8852,1.8866,1.8871,1.889,1.8897,1.8911,1.8929,1.8951,1.8966,1.8987,1.9023,1.9027,1.9038,1.9041,1.9044,1.9047,1.9065,1.9069,1.902,1.902,1.902,0,0,1.8764,1.8782,1.8796,1.8831,1.8846,1.8869,1.8859,1.8885,1.8902,1.8901,1.8932,1.8943,1.8963,1.8997,1.9012,1.9007,1.9061,1.9047,1.9049,1.905,1.9068,1.9072,1.9076,1.9021,1.9021,1.9021,0,0,1.8798,1.8814,1.8841,1.8856,1.8879,1.8888,1.8895,1.8917,1.8924,1.8956,1.8955,1.8975,1.9014,1.9028,1.904,1.9078,1.9076,1.9085,1.9101,1.9119,1.9123,1.9126,1.9138,1.9143,1.9088,1.9088,1.9088,0,1.8809,1.8846,1.8855,1.8881,1.8895,1.8896,1.8922,1.8937,1.8965,1.8974,1.8968,1.9015,1.9029,1.9065,1.9075,1.9085,1.9091,1.9082,1.9122,1.9125,1.9128,1.914,1.9145,1.9089,1.9089,1.9089,1.9089,0,1.8858,1.8883,1.8902,1.893,1.8947,1.8973,1.8984,1.9,1.9003,1.9012,1.9043,1.906,1.9084,1.9093,1.9096,1.913,1.9125,1.912,1.9107,1.9134,1.9145,1.9149,1.909,1.909,1.909,1.9089,0,0,1.8896,1.8929,1.8935,1.8947,1.8973,1.8992,1.9017,1.9042,1.9054,1.9073,1.9094,1.9126,1.9121,1.9135,1.9139,1.9155,1.9182,1.9148,1.9148,1.9152,1.9218,1.9221,1.9226,1.9181,1.9182,1.9183,1.9216,0,1.8931,1.8978,1.8986,1.9026,1.9048,1.9049,1.9071,1.9088,1.9097,1.9117,1.9126,1.9149,1.9141,1.915,1.9165,1.9176,1.9195,1.9173,1.9199,1.92,1.9193,1.9232,1.9236,1.9266,1.9221,1.9221,1.9222,0,1.8979,1.9,1.9042,1.9063,1.9072,1.9092,1.9114,1.9134,1.9152,1.9158,1.9173,1.9175,1.92,1.9187,1.9221,1.9206,1.9217,1.9223,1.9225,1.9226,1.9212,1.9234,1.9276,1.928,1.9229,1.9228,1.9228,0,1.9001,1.9039,1.9069,1.908,1.9105,1.9119,1.913,1.9148,1.9162,1.9181,1.919,1.9211,1.9223,1.9239,1.9247,1.9237,1.9279,1.9267,1.9283,1.9283,1.9291,1.929,1.9335,1.93,1.93,1.93,1.93,0,1.9038,1.9063,1.9079,1.9097,1.9125,1.9134,1.9161,1.9172,1.9187,1.9207,1.9209,1.9227,1.9236,1.9255,1.9261,1.9287,1.9293,1.9297,1.9298,1.9296,1.9295,1.9302,1.93,1.9301,1.9301,1.9301,1.9301,0,1.9067,1.9079,1.9111,1.9133,1.9139,1.9158,1.9176,1.9193,1.9202,1.9226,1.9232,1.9246,1.9269,1.9278,1.9305,1.9309,1.9338,1.9339,1.9332,1.9332,1.9347,1.9345,1.9397,1.9403,1.9366,1.9366,1.9366,0,1.909,1.9109,1.9133,1.9147,1.9158,1.918,1.9194,1.9203,1.9217,1.924,1.9253,1.9276,1.9294,1.9329,1.9341,1.9361,1.9361,1.9378,1.9364,1.9361,1.936,1.9358,1.9359,1.938,1.938,1.9381,1.9381,0,1.9129,1.9133,1.9154,1.9177,1.9193,1.9211,1.9229,1.9239,1.9251,1.9267,1.929,1.9304,1.9332,1.9353,1.9374,1.9384,1.9384,1.9385,1.939,1.9387,1.9382,1.9384,1.9338,1.9384,1.9383,1.9383,1.9383,1.9383,1.9154,1.9171,1.919,1.9213,1.9227,1.9243,1.926,1.9271,1.9291,1.9314,1.9318,1.9342,1.9359,1.9388,1.9398,1.9417,1.9412,1.9419,1.9421,1.9422,1.9422,1.9381,1.9421,1.9421,1.942,1.942,1.942,0,1.9192,1.9204,1.9225,1.9249,1.9267,1.9266,1.9285,1.9299,1.9321,1.9337,1.9355,1.9381,1.9401,1.9415,1.9435,1.9447,1.9447,1.9452,1.9451,1.9453,1.9426,1.9419,1.9452,1.9452,1.9452,1.9452,1.9452,1.9452,1.9213,1.9241,1.9248,1.9283,1.9295,1.9319,1.933,1.9344,1.9357,1.9386,1.9403,1.9412,1.9427,1.9448,1.9467,1.947,1.9477,1.9482,1.9484,1.9458,1.9455,1.9452,1.9446,1.9483,1.9483,1.951,1.951,1.951]},{"header":{"parameterUnit":"m.s-1","parameterCategory":1,"la1":30.2991,"la2":30.254,"lo1":-89.0895,"lo2":-89.0444,"dy":0.0017,"dx":0.0017,"nx":28,"ny":28,"refTime":"2025-08-21T03:00:00:Z","depth":0,"parameterNumber":3,"parameterNumberName":"V-component_of_WINDS"},"data":[0,0,0,0,0,0,0,0,0,0,0,0,0,0,0,0,0,0,0,0,0,0,0,0,0,0,0,0,0,0,0,0,0,0,0,0,0,0,0,0,0,0,0,0,0,0,0,0,0,0,0,0,0,0,0,0,0,0,-0.4117,-0.4116,0,-0.4034,-0.4033,-0.4032,-0.4007,-0.4008,-0.4008,-0.4008,-0.3918,-0.3916,-0.3913,0,0,0,0,0,0,0,0,0,0,0,0,0,-0.4249,-0.4247,-0.4117,-0.4116,-0.4115,-0.4034,-0.4033,-0.4032,-0.4007,-0.4008,-0.4008,-0.4009,-0.3919,-0.3916,-0.3913,0,0,0,0,0,0,0,0,0,0,0,0,0,-0.4181,-0.4246,-0.4117,-0.4093,-0.409,-0.4034,-0.4033,-0.4031,-0.4007,-0.4008,-0.4008,-0.4009,-0.392,-0.3916,-0.3912,-0.3873,0,0,-0.3899,-0.3898,0,0,0,0,0,0,0,0,-0.4185,-0.4177,-0.4098,-0.4095,-0.4091,-0.4032,-0.4046,-0.3978,-0.4007,-0.4038,-0.4008,-0.4009,-0.3955,-0.3948,-0.3931,-0.3869,-0.3865,-0.3899,-0.3896,-0.3895,-0.3893,0,0,0,0,0,0,0,-0.419,-0.418,-0.4084,-0.4096,-0.4092,-0.4085,-0.4076,-0.4033,-0.3994,-0.4036,-0.4034,-0.4024,-0.3954,-0.3935,-0.3929,-0.3864,-0.3899,-0.3895,-0.3893,-0.3891,-0.3764,-0.3763,0,0,0,0,0,0,-0.42,-0.4184,-0.4087,-0.4081,-0.4141,-0.4082,-0.4072,-0.405,-0.3994,-0.3987,-0.4024,-0.4024,-0.3942,-0.3934,-0.3925,-0.3875,-0.3895,-0.3891,-0.3888,-0.3765,-0.3764,-0.3763,0,0,0,0,0,0,-0.4202,-0.4191,-0.409,-0.4132,-0.4119,-0.4079,-0.4054,-0.4048,-0.403,-0.3986,-0.3978,-0.4013,-0.3942,-0.3931,-0.3886,-0.3871,-0.3889,-0.3885,-0.3766,-0.3764,-0.3763,-0.3774,0,0,0,0,0,0,-0.4206,-0.4192,-0.4178,-0.4132,-0.4117,-0.4054,-0.4054,-0.4046,-0.4023,-0.4022,-0.3973,-0.3966,-0.3942,-0.3893,-0.3882,-0.3866,-0.3882,-0.3767,-0.3765,-0.3764,-0.3775,-0.3774,-0.3772,0,0,0,0,0,-0.4211,-0.4184,-0.4178,-0.4166,-0.4099,-0.4053,-0.4044,-0.4019,-0.4022,-0.4006,-0.3978,-0.3967,-0.3875,-0.3888,-0.3876,-0.3859,-0.3768,-0.3766,-0.3764,-0.3776,-0.3774,-0.3772,0,0,0,0,0,0,-0.4228,-0.4178,-0.417,-0.4127,-0.4095,-0.4049,-0.4029,-0.4018,-0.3982,-0.3982,-0.3951,-0.394,-0.3897,-0.3873,-0.3889,-0.3817,-0.3821,-0.3816,-0.3834,-0.3832,-0.3831,-0.3837,-0.3878,0,0,0,0,0,-0.4227,-0.4196,-0.4153,-0.4119,-0.4104,-0.4069,-0.4048,-0.4032,-0.3996,-0.3982,-0.395,-0.3915,-0.3877,-0.3854,-0.3817,-0.3772,-0.376,-0.3754,-0.3752,-0.3751,-0.3747,-0.372,-0.3716,-0.3756,-0.3756,-0.3756,0,0,-0.4224,-0.4193,-0.4175,-0.4122,-0.4095,-0.4061,-0.4058,-0.4023,-0.3997,-0.3976,-0.3932,-0.3907,-0.3865,-0.382,-0.3798,-0.3798,-0.3734,-0.3749,-0.3749,-0.3745,-0.3718,-0.3714,-0.3711,-0.3755,-0.3755,-0.3755,0,0,-0.4201,-0.4175,-0.4144,-0.4117,-0.4076,-0.4054,-0.4046,-0.4002,-0.3985,-0.3941,-0.3924,-0.3892,-0.3829,-0.38,-0.3777,-0.3743,-0.373,-0.3732,-0.3724,-0.3698,-0.3694,-0.3691,-0.3678,-0.3673,-0.3728,-0.3728,-0.3728,0,-0.4202,-0.4153,-0.4129,-0.4095,-0.4071,-0.4052,-0.4019,-0.3994,-0.3943,-0.3926,-0.3928,-0.3848,-0.3819,-0.3765,-0.3757,-0.374,-0.3728,-0.3736,-0.3697,-0.3694,-0.3691,-0.3677,-0.3672,-0.3728,-0.3728,-0.3728,-0.3728,0,-0.4155,-0.4121,-0.4101,-0.4053,-0.4028,-0.3994,-0.3963,-0.394,-0.3926,-0.3902,-0.3856,-0.382,-0.3776,-0.3762,-0.3747,-0.3706,-0.3707,-0.3704,-0.3706,-0.3688,-0.3674,-0.3669,-0.3729,-0.3729,-0.3729,-0.3729,0,0,-0.414,-0.408,-0.4073,-0.4051,-0.4004,-0.3977,-0.3942,-0.39,-0.3879,-0.3845,-0.3813,-0.3761,-0.3757,-0.3731,-0.3712,-0.369,-0.3663,-0.3688,-0.3687,-0.3684,-0.3614,-0.3616,-0.361,-0.3656,-0.3654,-0.3654,-0.3617,0,-0.4111,-0.4049,-0.4026,-0.3975,-0.3942,-0.3923,-0.3893,-0.386,-0.3837,-0.3805,-0.3779,-0.3741,-0.374,-0.3724,-0.3701,-0.3672,-0.3648,-0.3674,-0.3624,-0.3622,-0.3634,-0.3604,-0.3606,-0.3573,-0.3611,-0.3611,-0.361,0,-0.4068,-0.4034,-0.398,-0.3937,-0.3922,-0.3896,-0.3854,-0.3824,-0.3786,-0.3771,-0.3742,-0.3725,-0.3686,-0.3692,-0.3637,-0.3655,-0.3633,-0.3615,-0.3613,-0.3606,-0.3614,-0.3594,-0.3562,-0.3556,-0.3602,-0.3602,-0.3603,0,-0.4061,-0.4002,-0.3961,-0.3943,-0.3892,-0.3873,-0.3851,-0.3814,-0.379,-0.3753,-0.3737,-0.3696,-0.3673,-0.3641,-0.3613,-0.3621,-0.356,-0.3564,-0.3544,-0.3545,-0.3531,-0.3532,-0.3493,-0.352,-0.352,-0.352,-0.352,0,-0.4029,-0.3996,-0.3957,-0.3932,-0.3894,-0.3868,-0.383,-0.3806,-0.3773,-0.3742,-0.3723,-0.3694,-0.3659,-0.3625,-0.3603,-0.3559,-0.3549,-0.3535,-0.3529,-0.3535,-0.3537,-0.3519,-0.352,-0.3518,-0.3519,-0.3519,-0.3519,0,-0.4014,-0.3987,-0.3941,-0.3897,-0.3885,-0.3859,-0.3821,-0.3795,-0.3771,-0.3732,-0.3721,-0.3683,-0.3642,-0.3611,-0.3557,-0.3542,-0.3495,-0.349,-0.3508,-0.3505,-0.3486,-0.3488,-0.3433,-0.3424,-0.3459,-0.3459,-0.3458,0,-0.3995,-0.397,-0.3923,-0.3902,-0.388,-0.3845,-0.3821,-0.3793,-0.3768,-0.3722,-0.3701,-0.3659,-0.3624,-0.3558,-0.3525,-0.3483,-0.3476,-0.346,-0.3469,-0.3476,-0.3473,-0.3475,-0.3471,-0.3458,-0.3457,-0.3457,-0.3457,0,-0.3964,-0.3952,-0.3918,-0.3879,-0.3851,-0.3819,-0.3786,-0.3769,-0.3735,-0.3707,-0.3666,-0.3638,-0.3584,-0.3541,-0.3496,-0.3471,-0.3458,-0.3455,-0.3447,-0.3453,-0.3464,-0.3456,-0.3503,-0.3456,-0.3456,-0.3456,-0.3456,-0.3456,-0.3945,-0.3921,-0.3885,-0.3847,-0.382,-0.379,-0.3763,-0.3737,-0.3702,-0.3656,-0.3642,-0.3598,-0.3559,-0.3498,-0.3472,-0.3436,-0.3436,-0.3426,-0.3424,-0.3421,-0.3421,-0.3472,-0.3428,-0.3428,-0.3428,-0.3428,-0.3428,0,-0.3912,-0.3887,-0.3854,-0.3809,-0.3779,-0.3771,-0.3734,-0.3709,-0.3671,-0.3637,-0.3603,-0.3554,-0.3513,-0.3477,-0.3433,-0.3411,-0.3404,-0.3401,-0.3401,-0.3395,-0.3424,-0.3434,-0.3407,-0.3407,-0.3407,-0.3407,-0.3407,-0.3407,-0.3891,-0.3849,-0.3833,-0.3777,-0.3752,-0.371,-0.369,-0.3661,-0.3634,-0.358,-0.3547,-0.3524,-0.3488,-0.3442,-0.3403,-0.3393,-0.3377,-0.3375,-0.3364,-0.3391,-0.3393,-0.3396,-0.3405,-0.3372,-0.3372,-0.3337,-0.3337,-0.3337]}]]